Regional Weather Roundup
Issued by NWS

Home | Current Version | Previous Version | Text Only | Print | Product List | Glossary Off
Versions: 1 2 3 4 5 6 7 8 9 10 11 12 13 14 15 16 17 18 19 20 21 22 23 24 25 26 27 28 29 30 31 32 33 34 35 36 37 38 39 40 41 42 43 44 45 46 47 48 49 50

000
ASUS43 KDTX 171801
RWRMI
MICHIGAN HOURLY REGIONAL WEATHER ROUNDUP
NATIONAL WEATHER SERVICE DETROIT/PONTIAC MI
100 PM EST WED DEC 17 2014

NOTE: "FAIR" INDICATES FEW OR NO CLOUDS BELOW 12,000 FEET WITH NO
SIGNIFICANT WEATHER AND/OR OBSTRUCTION TO VISIBILITY.

MIZ047>049-052>055-059>063-066>070-074>076-081>083-171900-
SOUTHEAST LOWER MICHIGAN

CITY           SKY/WX    TMP DP  RH WIND       PRES   REMARKS
ADRIAN         CLOUDY    30  22  72 NW15G24   30.11F WCI  19
6HR MIN TEMP:  30; 6HR MAX TEMP:  32;

ALMA           CLOUDY    29  23  79 W15G21    30.06F WCI  18
ANN ARBOR      CLOUDY    31  21  66 W20G25    30.07F WCI  19
BAD AXE        CLOUDY    31  29  92 W20G25    29.97S WCI  19
6HR MIN TEMP:  31; 6HR MAX TEMP:  32;

CARO           CLOUDY    31  26  79 W18G24    30.00S WCI  20
DETROIT CITY   CLOUDY    33  22  63 W16G25    30.06S WCI  23
6HR MIN TEMP:  33; 6HR MAX TEMP:  35;

DETROIT        CLOUDY    32  22  66 W15G23    30.08S WCI  22
6HR MIN TEMP:  32; 6HR MAX TEMP:  34; 6HR PCP: TRACE;

FLINT          CLOUDY    31  22  69 W21G29    30.06S WCI  18
6HR MIN TEMP:  31; 6HR MAX TEMP:  33;

GROSSE ILE     CLOUDY    34  21  60 W15G24    30.07S WCI  24
HILLSDALE      CLOUDY    29  25  85 W17       30.09F WCI  16
6HR MIN TEMP:  29; 6HR MAX TEMP:  31;

HOWELL         CLOUDY    29  23  76 W14       30.06S WCI  19
6HR MIN TEMP:  29; 6HR MAX TEMP:  30;


CITY           SKY/WX    TMP DP  RH WIND       PRES   REMARKS
JACKSON        CLOUDY    30  22  72 W10       30.08F WCI  21
6HR MIN TEMP:  29; 6HR MAX TEMP:  30;

LAMBERTVILLE   CLOUDY    32  25  74 W14G23    30.11F WCI  22
LANSING        CLOUDY    29  20  69 W18G24    30.08F WCI  16
6HR MIN TEMP:  29; 6HR MAX TEMP:  30;

LAPEER         CLOUDY    31  24  75 W18G25    30.02R WCI  19
MASON          CLOUDY    29  21  72 W18G24    30.08S WCI  17
MONROE         CLOUDY    34  25  69 W17G23    30.08S WCI  23
MT. CLEMENS    CLOUDY    31  23  72 W17G26    30.02S WCI  20
6HR MIN TEMP:  31; 6HR MAX TEMP:  34;

PONTIAC        CLOUDY    29  21  72 W17G25    30.04F WCI  17
6HR MIN TEMP:  29; 6HR MAX TEMP:  31;

PORT HOPE        N/A     32  27  81 W13G22    29.92F WCI  22
6HR MIN TEMP:  32; 6HR MAX TEMP:  33; 6HR PCP:  0.04;

PORT HURON     CLOUDY    32  25  74 W8G22     30.01S WCI  25
TRI CITIES     CLOUDY    32  24  72 W18G25    30.03F WCI  20
6HR MIN TEMP:  32; 6HR MAX TEMP:  35;

TROY           CLOUDY    32  23  68 W14G25    30.07S WCI  22
SAGINAW HB     CLOUDY    32  27  80 W16G26    30.02F WCI  21
$$
MIZ043>046-050>051-056>058-064>065-071>073-077>080-171900-
SOUTHWEST LOWER MICHIGAN

CITY           SKY/WX    TMP DP  RH WIND       PRES   REMARKS
BATTLE CREEK   CLOUDY    30  21  69 W16G22    30.11F WCI  19
6HR MIN TEMP:  30; 6HR MAX TEMP:  31;

BENTON HARBOR  CLOUDY    28  21  75 W15G23    30.18F WCI  16
6HR MIN TEMP:  27; 6HR MAX TEMP:  29;

BIG RAPIDS     CLOUDY    28  26  93 W12G17    30.05S WCI  17
6HR MIN TEMP:  28; 6HR MAX TEMP:  29;

COLDWATER      CLOUDY    28  22  78 W17       30.12F WCI  16
6HR MIN TEMP:  28; 6HR MAX TEMP:  31;

FREMONT        CLOUDY    28  20  72 W14       30.10S WCI  17
6HR MIN TEMP:  28; 6HR MAX TEMP:  29;

HOLLAND        CLOUDY    31  21  66 W14G24    30.14F WCI  21
6HR MIN TEMP:  31; 6HR MAX TEMP:  33; 6HR PCP: TRACE;

GRAND RAPIDS   FLURRIES  29  20  69 W13       30.10F WCI  19
6HR MIN TEMP:  29; 6HR MAX TEMP:  30; 6HR PCP: TRACE;

IONIA          CLOUDY    30  24  78 W17       30.08S WCI  18
KALAMAZOO      CLOUDY    30  21  69 W13       30.13F WCI  20
6HR MIN TEMP:  29; 6HR MAX TEMP:  31;

LUDINGTON      CLOUDY    31  23  72 NW12G20   30.11F WCI  21
MARSHALL       CLOUDY    28  22  77 W12G20    30.10F WCI  18
MOUNT PLEASANT CLOUDY    30  26  84 W13G18    30.03F WCI  20
6HR MIN TEMP:  29; 6HR MAX TEMP:  31;

MUSKEGON       FLURRIES  30  21  69 W17       30.13S WCI  18
6HR MIN TEMP:  29; 6HR MAX TEMP:  31; 6HR PCP: TRACE;

SOUTH HAVEN    CLOUDY    31  22  71 NW16      30.16F WCI  19
$$
MIZ016>042-171900-
NORTHERN LOWER MICHIGAN

CITY           SKY/WX    TMP DP  RH WIND       PRES   REMARKS
ALPENA         LGT SNOW  30  27  88 NW8       29.93S FOG     WCI  22
6HR MIN TEMP:  30; 6HR MAX TEMP:  33; 6HR PCP:  0.04;

BEAVER ISLAND  CLOUDY    28  23  79 NW12G17   29.99F WCI  18
6HR MIN TEMP:  28; 6HR MAX TEMP:  29;

BELLAIRE       LGT SNOW  31  28  88 W7G16     30.00F WCI  24
6HR MIN TEMP:  30; 6HR MAX TEMP:  32;

CADILLAC       FLURRIES  26  22  84 W14G24    29.99F WCI  14
CHARLEVOIX     CLOUDY    29  27  91 NW14G21   30.01F FOG     WCI  18
6HR MIN TEMP:  29; 6HR MAX TEMP:  30;

FRANKFORT      LGT SNOW  28  24  86 NW20G25   30.07F WCI  14
GAYLORD        LGT SNOW  27  24  89 NW8G18    29.93S FOG     WCI  19
6HR MIN TEMP:  26; 6HR MAX TEMP:  29; 6HR PCP:  0.01;

GRAYLING       FLURRIES  28  25  87 W6        29.96S WCI  22
6HR MIN TEMP:  28; 6HR MAX TEMP:  31;

HARBOR SPRINGS CLOUDY    29  24  82 W7        29.97S WCI  22
HOUGHTON LAKE  CLOUDY    28  22  78 W14G23    29.97S WCI  17
6HR MIN TEMP:  28; 6HR MAX TEMP:  29; 6HR PCP:  0.01;

MANISTEE       CLOUDY    28  19  69 NW21      30.09S WCI  15
OSCODA         CLOUDY    32  28  86 W15G24    29.93S FOG     WCI  22
PELLSTON       CLOUDY    28  24  85 NW14      29.97S WCI  17
6HR MIN TEMP:  28; 6HR MAX TEMP:  30; 6HR PCP:  0.02;

ROGERS CITY    LGT SNOW  29  29  96 NW10G17   29.94S WCI  20
TRAVERSE CITY  FLURRIES  29  24  82 W15G23    30.02F WCI  18
6HR MIN TEMP:  29; 6HR MAX TEMP:  31; 6HR PCP: TRACE;

$$
MIZ007>008-015-171900-
EASTERN UPPER MICHIGAN

CITY           SKY/WX    TMP DP  RH WIND       PRES   REMARKS
KINROSS        CLOUDY    25  23  93 N9        29.95S VSB 3/4 WCI  15
6HR MIN TEMP:  25; 6HR MAX TEMP:  27; 6HR PCP:  0.01;

MACKINAC ISLAN LGT SNOW  27  26  98 NW13      29.95S WCI  16
6HR MIN TEMP:  27; 6HR MAX TEMP:  30; 6HR PCP:  0.09;

NEWBERRY       CLOUDY    24  22  91 N12G17    29.97S WCI  13
6HR MIN TEMP:  24; 6HR MAX TEMP:  26;

S. S. MARIE    LGT SNOW  24  19  81 NW5       29.96F WCI  18
6HR MIN TEMP:  23; 6HR MAX TEMP:  25; 6HR PCP:  0.04;

$$
MIZ004>006-011>014-085-171900-
CENTRAL UPPER MICHIGAN

CITY           SKY/WX    TMP DP  RH WIND       PRES   REMARKS
MANISTIQUE     CLOUDY    27  24  87 N10G17    30.01S WCI  18
6HR MIN TEMP:  27; 6HR MAX TEMP:  28;

ESCANABA       CLOUDY    27  19  74 W16G22    30.04F WCI  14
6HR MIN TEMP:  25; 6HR MAX TEMP:  27;

MENOMINEE      CLOUDY    25  16  68 NW13      30.11F WCI  13
6HR MIN TEMP:  21; 6HR MAX TEMP:  25;

SAWYER-GWINN   LGT SNOW  25  23  93 N13G20    30.03F WCI  13
$$
MIZ001>003-009>011-084-171900-
WESTERN UPPER MICHIGAN

CITY           SKY/WX    TMP DP  RH WIND       PRES   REMARKS
IRON MOUNTAIN  LGT SNOW  24  18  77 NW16G23   30.07F WCI  11
6HR MIN TEMP:  21; 6HR MAX TEMP:  24; 6HR PCP: TRACE;

HOUGHTON       LGT SNOW  23  18  81 N15G25    30.12S WCI  10
6HR MIN TEMP:  22; 6HR MAX TEMP:  24; 6HR PCP:  0.02;

COPPER HARBOR    N/A     27  21  78 NE24      30.14S WCI  12
6HR MIN TEMP:  26; 6HR MAX TEMP:  28; 6HR PCP:  0.01;

IRONWOOD       CLOUDY    18  16  93 W12       30.16S WCI   5
6HR MIN TEMP:  18; 6HR MAX TEMP:  18;

$$

ABBREVIATIONS USED IN REMARKS
   TC - TEMPERATURE IN CELSIUS
  WCI - WIND CHILL INDEX
   HX - HEAT INDEX
  VSB - VISIBILITY



USA.gov is the U.S. government's official web portal to all federal, state and local government web resources and services.